map of LMO home
LMO - Airport
Location
City:  Lossiemouth, Morayshire, Scotland, United Kingdom
Name:RAF
ICAO:EGQS
IATA:LMO

Details
Type:Airport (Aerodrome, Airfield)
Use:Military, International (customs port of entry)
Latitude:5742'19"N (57.705214)
Longitude:320'21"W (-3.339168)
Datum:WGS 1984
Elevation:42 ft (13 m)
Variation:2.78W (WMM2015 magnetic declination)
0.18 annual change
Runways:2
Longest:9091 × 150 ft (2771 × 45.5 m), paved

Time
Time Zone:UTC+0 (DST+1)
Local Time:

Weather
METAR:EGQS 041350Z 10002KT 9999 FEW040 05/M01 Q1026 BLU
TAF:EGQS 041314Z 0415/0509 24002KT 9999 FEW040= TAF EGVN 041319Z 0415/0515 07012KT CAVOK PROB40 0421/0502 5000 BR
BECMG 0502/0505 3000 BR SCT005 PROB40 0503/0512 1200 BR SCT002 PROB30 0504/0510 0200 FZFG VV///

Related Locations
Nearby:
Farthest:SZS: 11602 mi / 18672 km
Ryan's Creek, Stewart Island, STL, NZ

Find:

   beyond  
but within

Other Information
Maps:
NOTAMs:
Links:
Sources:

  
flag of United Kingdom
flag of Scotland
flag of Royal Air Force
  

Airport Diagram

Airport diagram for LMO

Airport diagram (OBSOLETE) from NGA

Sectional Chart

Flight Planning
at skyvector.com

Satellite Image

Google Maps Satellite view

 

Copyright © 2004-2016 Karl L. Swartz. All rights reserved.
The Great Circle Mapper name and logo are trademarks of the Great Circle Mapper.
All other trademarks mentioned herein belong to their respective owners.
Please see credits for attibutions and further copyright information.

  Follow gcmap on Facebook Follow gcmap on Twitter Follow gcmap on Google+ GCmap on LinkedIn

hCard Microformat

Geo Microformat